Location: 22
(39.7117°N, 89.5929°W)
Time: 18:00:33
(UTC-05:00)

Gurwin Techsat 1B - Pass Details

Date: 09 April 2023
Orbit: 811 x 813 km, 98.9° (Epoch: 06 June)

Event Time Altitude Azimuth Distance (km) Brightness Sun altitude
Rises 02:23:59 0° 37° (NE) 3,344 12.7 -38.9°
Reaches altitude 10° 02:28:04 10° 68° (ENE) 2,405 11.5 -38.6°
Enters shadow 02:29:41 12° 86° (E) 2,272 11.2 -38.4°
